Wind_Speed
8 9 9 7 7 8 13 6 15 8 5 8 2 3 8 3 5 1 5 10 12 12 15 17 14 11 11 12 12 9 9 10 11 13 14 15 17 19 20 21 21 20 19 17 15 16 17 19 20
10 11 11 11 8 11 14 8 10 4 13 10 9 7 3 4 3 6 7 3 8 9 13 15 15 12 11 11 10 8 7 8 9 11 12 13 15 17 20 21 23 25 24 20 18 16 16 18 20
10 12 14 9 12 19 10 11 10 12 9 9 10 3 12 9 2 7 6 7 6 7 12 14 16 14 13 12 10 8 8 8 9 9 10 11 13 15 18 19 20 24 28 25 21 17 16 16 18
14 14 14 16 16 13 14 14 18 23 8 10 11 6 8 8 13 13 12 10 9 8 10 13 15 15 14 14 12 10 10 10 10 9 9 11 13 15 18 19 20 23 27 26 23 20 17 14 15
17 16 15 15 18 11 8 14 20 10 11 10 2 3 5 11 10 11 14 14 14 10 10 13 14 17 16 15 14 13 12 12 11 11 12 13 14 15 17 20 20 22 24 26 21 19 17 17 19
18 16 12 19 17 11 9 13 18 12 11 10 17 16 16 10 9 9 12 21 20 21 17 12 20 17 18 19 19 17 15 14 15 15 14 15 16 17 19 20 20 22 23 27 21 20 19 19 17
21 16 22 18 15 19 19 15 13 18 7 6 8 6 7 5 4 10 18 12 20 22 24 16 16 22 17 19 23 23 20 18 18 21 18 19 19 20 20 20 21 22 26 27 22 19 20 20 20
19 21 25 22 20 26 13 13 17 13 12 6 8 11 12 12 12 16 8 9 10 23 24 27 24 21 23 19 26 28 24 22 22 22 20 22 22 22 23 22 22 22 26 28 24 20 20 19 19
20 23 30 27 23 20 14 15 13 18 21 17 5 4 9 7 17 19 5 9 11 20 29 31 26 25 29 24 29 29 29 24 24 25 24 23 24 24 25 25 24 24 25 28 27 22 20 20 19
28 35 37 26 27 21 18 20 20 20 25 17 19 13 17 15 20 18 20 13 11 16 29 34 29 25 26 29 31 35 31 28 27 27 26 25 23 25 26 26 26 28 26 28 29 22 21 20 19
31 46 39 37 31 21 24 29 22 27 19 25 23 28 21 21 24 28 31 33 26 25 23 29 31 26 27 35 35 38 33 30 27 28 27 26 23 26 26 27 28 31 29 29 28 25 21 19 18
37 39 34 35 30 26 29 30 34 30 30 27 29 30 29 26 22 28 31 31 32 35 25 30 33 35 37 40 41 36 34 30 29 28 29 27 25 25 26 25 29 29 30 28 28 25 23 20 18
44 40 34 33 32 31 28 34 38 38 34 33 37 36 37 40 39 35 40 39 37 26 23 30 36 40 39 45 46 36 35 31 28 28 31 29 25 27 27 24 26 29 31 30 28 25 23 22 20
43 36 38 36 36 34 37 41 41 42 34 40 42 43 42 39 36 36 33 37 34 29 29 33 36 39 42 48 39 35 37 37 31 30 31 30 28 31 26 24 25 28 30 30 27 25 23 21 19
41 41 42 46 43 42 33 47 51 45 44 48 44 41 39 38 42 42 37 40 36 32 34 35 38 41 42 38 35 37 40 40 36 34 34 32 33 32 26 27 28 29 29 28 23 23 22 22 20
38 38 46 52 46 45 37 70 52 47 47 48 49 47 40 40 39 34 32 36 32 36 36 39 44 39 41 33 31 36 38 36 36 37 38 35 33 30 25 27 29 31 31 27 24 23 22 21 19
35 44 47 52 51 47 39 56 53 52 48 45 45 40 43 43 42 33 37 32 33 36 39 42 44 37 38 27 25 27 29 33 37 41 41 34 36 28 26 28 29 32 31 25 24 23 23 21 20
33 40 56 60 38 32 41 50 53 44 39 46 39 35 38 41 40 38 34 39 36 42 42 40 38 36 36 27 24 27 29 33 39 40 39 37 33 25 26 28 30 32 27 24 23 22 23 23 24
34 39 41 41 39 38 46 45 48 47 37 39 42 40 38 37 41 38 38 33 30 40 38 32 31 32 35 30 26 28 30 33 36 38 33 29 23 23 26 28 28 25 24 24 23 24 22 21 18
44 43 43 35 32 33 43 43 44 45 43 38 39 38 36 35 35 33 31 31 37 29 28 30 32 34 34 30 27 27 26 29 29 27 20 17 20 23 25 23 24 23 21 20 17 18 17 12 11
42 51 46 43 28 35 37 37 43 44 43 42 37 38 35 32 34 36 39 40 40 41 33 30 32 29 29 25 21 21 23 25 21 16 13 16 20 20 21 21 20 19 17 16 16 13 10 9 8
43 36 37 37 29 41 28 28 46 47 48 43 42 40 37 37 38 37 31 32 29 24 25 28 25 25 20 19 17 18 19 16 13 14 16 18 19 18 17 18 18 17 16 12 11 10 9 9 8
47 30 32 32 35 37 41 28 60 37 37 36 29 27 27 32 29 32 29 26 26 26 24 25 22 22 20 15 15 15 14 13 13 15 17 17 15 16 18 16 14 12 10 9 8 8 8 8 8
33 31 33 32 34 21 42 32 65 44 46 39 36 32 32 30 30 33 32 24 25 22 27 22 22 21 14 13 13 13 12 11 14 16 14 13 13 15 15 11 10 9 7 7 7 7 8 7 6
26 33 15 14 15 18 30 27 46 14 26 31 32 25 25 29 30 25 27 25 24 23 22 20 20 14 13 11 13 10 11 13 14 13 12 11 13 13 9 8 7 5 5 3 3 4 4 6 8
28 27 22 14 14 18 28 18 23 46 39 37 31 24 21 22 19 23 20 20 20 19 19 19 15 12 11 11 11 11 12 14 11 11 10 10 11 9 6 4 3 3 2 6 5 3 3 4 7
37 39 33 35 34 11 21 31 35 34 35 31 25 26 20 14 19 19 20 16 17 18 18 15 12 10 12 11 11 11 12 9 9 10 8 8 7 5 3 2 2 3 5 4 2 3 3 2 4
27 36 19 33 16 16 12 26 26 36 31 25 24 25 19 18 16 17 19 17 16 14 15 12 10 10 11 10 10 10 9 7 8 8 6 6 4 2 3 3 3 3 2 2 1 2 1 2 4
18 36 34 27 30 13 8 19 31 35 32 22 24 29 24 22 19 17 18 16 13 14 13 10 9 10 9 9 9 6 5 6 7 5 3 5 2 2 4 5 3 2 2 2 3 3 4 3 2
26 27 37 26 15 33 24 26 29 16 16 24 20 32 25 24 19 16 18 16 14 12 11 9 9 9 8 8 5 4 3 5 4 2 3 2 3 4 5 6 4 0 1 1 3 2 2 3 3
Wind_Direction
188 192 186 188 210 231 247 290 339 267 273 90 297 344 1 339 297 330 2 333 358 360 348 336 317 323 340 347 356 358 354 359 6 13 12 10 6 5 1 359 355 346 334 319 298 276 260 253 252
187 188 187 200 222 226 248 316 291 14 176 184 45 353 300 36 249 237 300 360 360 346 342 336 317 306 314 333 350 356 0 2 5 8 9 8 6 3 359 355 354 349 340 327 313 295 277 266 257
189 202 194 189 233 226 247 295 314 16 325 347 294 14 251 242 82 283 294 330 347 348 339 339 320 300 300 315 335 349 355 359 0 357 356 354 351 353 354 350 349 350 345 333 320 305 292 276 267
186 203 211 221 218 243 275 287 320 307 308 261 236 251 170 186 238 254 292 311 320 340 349 335 320 302 296 302 312 321 332 340 344 337 330 336 341 349 353 350 347 344 344 337 323 317 306 294 283
196 205 213 232 238 246 262 280 287 297 304 243 325 247 300 219 233 267 281 304 312 312 336 335 324 307 298 294 292 302 314 315 318 315 317 328 334 344 351 355 349 339 340 338 325 314 306 297 289
212 209 225 236 239 244 269 301 262 243 322 277 244 254 263 220 258 254 295 300 301 313 333 326 332 323 308 298 288 283 290 295 304 307 314 322 328 334 341 347 347 341 339 337 329 319 307 296 288
216 206 233 239 250 259 261 299 303 297 308 161 247 200 211 231 285 323 320 309 317 320 315 304 284 319 310 320 308 292 280 284 292 299 305 315 319 325 330 334 341 343 338 337 327 322 312 297 286
227 238 243 229 237 258 241 301 300 327 288 317 311 228 230 279 302 317 320 317 321 306 304 313 300 288 295 307 318 305 285 277 284 287 293 303 310 315 320 326 329 338 339 339 330 317 315 301 290
235 243 241 235 231 245 252 292 294 293 264 295 44 280 244 288 316 293 315 301 308 302 305 301 293 297 303 290 306 309 297 277 280 281 282 290 299 307 315 319 324 322 333 337 332 320 314 301 288
227 234 238 242 251 240 241 260 284 294 248 281 285 261 254 267 282 267 276 301 270 266 285 295 288 284 298 295 300 301 299 286 281 280 277 283 291 300 305 310 314 317 326 330 332 322 317 303 285
239 244 248 240 238 240 256 268 256 271 277 273 279 286 267 260 273 284 282 276 280 281 276 279 288 289 295 297 300 294 292 284 281 280 277 277 281 290 302 303 307 315 321 324 328 322 315 303 284
245 248 251 254 250 238 245 257 263 261 269 279 267 291 292 284 274 277 290 283 285 286 258 266 277 284 289 290 297 282 283 283 278 277 279 273 275 283 285 292 304 311 317 318 320 316 311 306 294
242 249 247 252 253 251 254 256 263 261 266 279 282 279 275 282 266 275 279 287 283 277 269 263 269 278 289 289 294 278 275 283 277 278 279 278 269 273 275 292 303 309 312 312 314 315 310 304 299
239 247 251 249 250 253 259 262 263 267 272 276 280 283 274 272 277 281 280 280 281 279 261 265 269 272 284 292 289 274 275 280 277 277 280 279 268 265 279 292 296 302 306 310 311 308 303 299 297
237 244 246 244 244 249 257 263 256 262 268 270 274 282 281 275 272 269 272 276 278 268 261 263 270 279 294 297 282 272 274 278 275 279 282 281 270 265 283 293 298 300 298 300 296 295 292 291 285
247 239 248 241 241 245 249 260 259 264 265 272 272 269 271 272 270 270 279 276 269 259 261 272 275 291 301 302 283 275 274 274 277 282 285 282 279 273 281 291 294 294 296 297 291 291 288 284 276
234 239 241 250 240 244 243 260 262 266 268 272 276 270 264 269 271 277 266 277 282 264 264 273 282 291 301 293 283 274 270 272 277 280 281 284 281 276 281 289 291 291 293 291 289 290 285 274 280
219 228 237 243 243 249 253 259 267 268 272 266 271 275 270 274 274 269 268 271 278 277 275 278 280 289 297 288 282 275 272 273 273 274 274 269 272 276 285 288 288 290 291 287 284 283 284 287 272
229 235 247 254 252 251 253 254 259 265 268 258 266 268 269 273 278 272 267 264 282 267 267 274 282 285 290 285 278 274 276 276 277 274 275 274 273 281 284 290 292 288 284 284 288 282 279 285 271
232 237 245 255 250 252 258 260 268 264 269 269 271 270 269 273 270 264 270 261 263 274 277 284 280 285 285 278 277 274 275 274 272 268 263 266 278 283 291 294 291 292 292 288 287 277 274 275 269
240 239 245 253 258 249 265 275 265 261 263 263 270 270 265 267 267 270 276 283 274 266 274 287 280 282 277 270 269 266 270 272 268 265 267 268 281 290 293 296 303 296 288 282 279 269 269 259 248
240 237 246 253 255 257 267 273 271 258 258 262 262 264 260 264 268 271 273 269 276 274 271 276 278 281 265 260 261 271 269 253 257 272 283 289 292 299 307 299 295 287 288 284 279 274 258 251 249
243 244 249 248 251 258 257 259 264 262 262 262 265 267 268 264 267 272 266 261 264 264 260 272 279 267 259 252 273 262 250 263 277 280 280 291 298 298 289 292 291 286 288 282 266 249 246 254 245
246 249 248 251 255 256 250 239 263 255 256 264 269 260 266 266 270 269 255 259 253 251 266 268 271 264 249 267 256 248 255 274 280 282 292 295 289 292 294 291 283 287 285 276 265 251 245 237 212
242 239 247 241 235 239 245 244 241 262 258 261 267 267 266 278 266 255 243 249 249 257 253 264 263 238 260 260 248 256 270 273 271 278 279 287 291 294 282 273 282 284 280 273 231 213 215 193 195
251 241 218 219 223 249 248 244 248 255 265 267 269 267 269 260 241 239 237 239 248 245 250 258 229 246 262 246 253 265 258 264 272 270 279 283 289 279 267 275 277 275 177 164 147 166 211 226 239
245 251 241 243 266 262 239 251 267 264 262 259 255 250 249 249 224 232 230 236 241 249 253 221 229 249 251 256 267 259 256 255 254 253 265 279 283 269 265 228 192 185 171 165 206 282 282 252 220
242 240 245 230 232 252 262 243 259 258 260 247 229 213 236 221 218 214 218 234 241 228 203 215 234 243 257 262 248 252 255 258 253 253 263 273 275 245 196 146 179 212 197 232 351 345 329 195 232
237 242 239 253 228 232 264 262 240 272 271 206 200 219 228 217 207 216 227 219 222 208 207 221 238 253 257 242 256 251 253 228 234 237 241 256 202 187 169 157 182 221 206 74 55 56 73 147 211
265 271 239 236 249 228 268 254 245 291 170 181 205 208 217 221 223 221 202 213 217 209 214 228 242 251 237 248 253 248 206 187 204 216 217 208 181 166 178 182 182 190 288 41 19 44 94 237 211
Height
3168 3169 3170 3172 3177 3172 3168 3166 3171 3173 3173 3168 3168 3170 3171 3168 3168 3171 3170 3174 3175 3177 3177 3176 3175 3174 3173 3172 3171 3169 3168 3167 3166 3164 3163 3162 3161 3159 3158 3156 3154 3152 3150 3149 3149 3148 3148 3148 3149
3165 3167 3169 3169 3172 3169 3166 3166 3172 3172 3169 3166 3169 3171 3172 3166 3165 3168 3169 3174 3174 3175 3175 3174 3173 3172 3171 3170 3168 3168 3166 3165 3164 3163 3162 3161 3160 3158 3157 3155 3153 3151 3148 3146 3144 3144 3144 3144 3144
3164 3166 3167 3167 3167 3163 3164 3167 3168 3168 3169 3168 3171 3168 3170 3167 3163 3165 3166 3171 3172 3172 3172 3171 3171 3170 3169 3168 3167 3166 3164 3163 3162 3161 3160 3159 3159 3157 3156 3154 3152 3149 3146 3143 3141 3141 3140 3141 3140
3162 3164 3167 3164 3160 3162 3163 3164 3168 3171 3167 3171 3171 3172 3168 3167 3166 3166 3166 3169 3171 3171 3170 3169 3169 3168 3167 3165 3164 3163 3162 3162 3161 3160 3160 3158 3157 3156 3154 3151 3149 3147 3145 3142 3138 3136 3136 3136 3137
3160 3162 3162 3158 3158 3160 3162 3163 3166 3169 3168 3171 3168 3168 3167 3166 3164 3167 3163 3164 3166 3169 3169 3167 3167 3166 3165 3163 3162 3161 3160 3160 3160 3158 3158 3157 3155 3154 3152 3150 3148 3146 3144 3140 3137 3135 3133 3133 3133
3158 3160 3158 3155 3156 3158 3158 3162 3164 3163 3162 3166 3164 3167 3165 3165 3164 3167 3167 3161 3161 3162 3165 3165 3164 3162 3161 3160 3159 3159 3158 3157 3157 3156 3155 3154 3153 3151 3149 3147 3146 3144 3141 3138 3135 3133 3131 3130 3129
3155 3156 3152 3153 3153 3153 3156 3163 3164 3161 3163 3161 3165 3164 3162 3162 3162 3162 3162 3163 3155 3155 3156 3160 3159 3159 3157 3157 3156 3155 3154 3153 3153 3153 3152 3151 3150 3148 3146 3144 3143 3140 3138 3135 3132 3130 3128 3127 3126
3151 3153 3150 3149 3150 3150 3150 3158 3161 3161 3164 3162 3159 3163 3160 3161 3160 3159 3157 3157 3158 3152 3152 3153 3154 3153 3153 3153 3152 3151 3150 3149 3149 3148 3148 3147 3146 3145 3143 3141 3139 3137 3136 3132 3129 3127 3125 3123 3122
3151 3148 3145 3147 3149 3149 3150 3153 3158 3159 3161 3160 3159 3161 3164 3161 3159 3157 3156 3157 3154 3151 3149 3147 3148 3149 3149 3148 3148 3147 3145 3144 3144 3144 3143 3143 3142 3141 3139 3138 3136 3135 3132 3129 3126 3123 3121 3119 3118
3143 3137 3138 3146 3146 3147 3148 3152 3155 3156 3156 3157 3155 3158 3159 3159 3160 3157 3154 3153 3155 3155 3147 3144 3143 3144 3145 3144 3144 3142 3141 3140 3140 3139 3139 3138 3138 3137 3135 3134 3133 3132 3128 3125 3121 3119 3117 3115 3114
3135 3125 3136 3137 3140 3144 3145 3146 3149 3150 3150 3152 3153 3150 3153 3154 3152 3151 3149 3148 3150 3151 3149 3144 3140 3139 3140 3138 3139 3137 3136 3136 3135 3135 3134 3133 3133 3132 3130 3128 3128 3125 3123 3120 3116 3114 3113 3111 3109
3126 3127 3132 3134 3137 3140 3138 3141 3141 3141 3143 3146 3147 3148 3149 3150 3149 3145 3144 3143 3143 3144 3145 3140 3136 3134 3133 3132 3132 3132 3131 3131 3130 3129 3129 3128 3127 3126 3124 3122 3121 3120 3118 3115 3111 3110 3108 3106 3105
3115 3123 3127 3129 3131 3133 3135 3134 3134 3134 3137 3140 3141 3141 3141 3142 3141 3140 3137 3137 3135 3136 3138 3138 3134 3130 3129 3125 3122 3125 3125 3126 3125 3124 3123 3122 3122 3120 3120 3117 3114 3114 3112 3109 3105 3102 3102 3101 3099
3115 3121 3120 3124 3124 3127 3129 3128 3131 3130 3134 3133 3133 3133 3133 3133 3133 3132 3131 3129 3129 3130 3131 3132 3129 3126 3123 3120 3114 3117 3118 3119 3120 3119 3118 3116 3115 3114 3114 3113 3112 3111 3108 3102 3098 3097 3097 3096 3095
3109 3111 3112 3110 3115 3118 3127 3116 3115 3123 3127 3124 3125 3125 3124 3124 3125 3124 3124 3123 3123 3122 3123 3123 3122 3120 3119 3112 3107 3108 3110 3111 3113 3112 3112 3111 3109 3109 3109 3107 3105 3105 3103 3101 3098 3094 3093 3092 3091
3101 3106 3097 3097 3106 3109 3123 3084 3110 3117 3117 3116 3116 3116 3116 3116 3116 3115 3117 3116 3116 3115 3114 3115 3113 3112 3110 3106 3103 3102 3103 3102 3103 3103 3102 3102 3103 3103 3104 3102 3100 3098 3096 3094 3091 3089 3088 3087 3086
3089 3087 3088 3087 3096 3104 3111 3090 3102 3106 3108 3108 3107 3106 3107 3106 3108 3109 3110 3109 3109 3107 3107 3107 3103 3104 3102 3101 3100 3098 3098 3097 3096 3093 3093 3095 3096 3098 3099 3097 3095 3092 3089 3087 3085 3083 3082 3081 3081
3076 3080 3070 3071 3093 3098 3098 3094 3091 3095 3100 3099 3098 3098 3097 3097 3099 3101 3102 3103 3100 3100 3099 3098 3097 3097 3096 3095 3095 3094 3094 3093 3091 3090 3089 3090 3092 3093 3093 3091 3089 3086 3082 3080 3078 3077 3076 3075 3075
3072 3072 3071 3077 3088 3093 3088 3089 3085 3088 3091 3092 3091 3089 3088 3090 3092 3092 3093 3093 3093 3092 3090 3091 3090 3091 3090 3089 3090 3089 3088 3089 3087 3084 3084 3087 3087 3088 3086 3084 3082 3080 3077 3074 3072 3072 3070 3069 3069
3067 3065 3065 3074 3083 3085 3079 3081 3080 3079 3081 3083 3082 3082 3082 3083 3084 3084 3084 3085 3085 3086 3086 3086 3084 3084 3083 3083 3083 3083 3084 3082 3081 3080 3081 3082 3082 3081 3079 3077 3075 3072 3070 3068 3067 3066 3065 3065 3064
3055 3056 3065 3066 3077 3072 3073 3072 3069 3068 3069 3071 3074 3074 3075 3075 3075 3076 3077 3077 3075 3077 3080 3079 3078 3077 3077 3078 3078 3077 3077 3077 3076 3076 3077 3078 3077 3076 3074 3071 3068 3067 3065 3064 3062 3062 3062 3062 3063
3047 3058 3063 3066 3074 3060 3076 3064 3059 3060 3058 3063 3064 3066 3065 3066 3068 3069 3070 3068 3068 3070 3072 3074 3073 3072 3072 3072 3073 3073 3072 3072 3071 3072 3073 3073 3072 3070 3068 3067 3065 3063 3061 3060 3059 3059 3059 3060 3060
3038 3054 3059 3063 3063 3066 3062 3065 3026 3051 3050 3053 3057 3058 3057 3058 3058 3059 3060 3060 3062 3064 3066 3068 3069 3069 3069 3068 3068 3068 3068 3067 3067 3069 3069 3068 3067 3066 3065 3064 3061 3060 3058 3057 3057 3057 3057 3057 3058
3045 3049 3053 3056 3057 3054 3044 3058 3008 3039 3041 3046 3049 3049 3050 3051 3052 3050 3051 3054 3057 3059 3061 3063 3065 3065 3065 3065 3065 3065 3064 3065 3066 3065 3064 3064 3064 3062 3061 3060 3059 3057 3055 3055 3054 3054 3054 3054 3056
3035 3043 3046 3048 3046 3031 3044 3046 3022 3030 3034 3039 3040 3042 3043 3044 3044 3043 3045 3048 3052 3054 3057 3059 3060 3061 3061 3062 3062 3063 3062 3063 3063 3062 3062 3061 3060 3059 3058 3058 3056 3056 3054 3053 3052 3053 3054 3055 3055
3025 3033 3034 3037 3032 3026 3043 3020 3019 3026 3028 3034 3035 3037 3036 3035 3037 3038 3042 3045 3049 3051 3053 3055 3056 3057 3058 3059 3060 3060 3060 3059 3059 3059 3059 3059 3057 3056 3057 3056 3055 3055 3053 3053 3054 3053 3054 3055 3054
3017 3019 3026 3030 3028 3029 3025 3022 3016 3020 3020 3024 3029 3033 3031 3031 3033 3036 3039 3042 3045 3048 3049 3052 3053 3054 3055 3056 3057 3057 3057 3057 3057 3056 3057 3055 3055 3055 3054 3054 3055 3054 3054 3054 3053 3053 3054 3053 3053
3013 3015 3024 3021 3028 3030 3018 3017 3017 3010 3013 3016 3022 3026 3025 3028 3031 3034 3037 3040 3043 3044 3047 3049 3051 3052 3053 3054 3054 3054 3054 3054 3054 3054 3054 3053 3053 3053 3053 3053 3054 3054 3054 3054 3053 3052 3052 3051 3053
3008 3008 3015 3019 3020 3021 3022 3010 3008 3007 3005 3011 3016 3020 3020 3024 3029 3032 3035 3039 3041 3043 3045 3047 3049 3050 3051 3052 3051 3051 3051 3051 3052 3052 3051 3051 3051 3052 3052 3052 3053 3053 3053 3052 3053 3053 3052 3051 3050
3000 3001 3009 3013 3012 3015 3014 3008 3003 3006 3003 3007 3009 3014 3018 3022 3026 3029 3033 3036 3039 3041 3043 3045 3047 3048 3049 3049 3047 3048 3049 3050 3050 3049 3050 3049 3050 3051 3052 3052 3053 3054 3052 3052 3053 3053 3052 3049 3048